Location: Santa Giusta
(39.8800°N, 8.6069°E)
Time: 17:42:52
(UTC+00:00)

Cosmos 2322 Rocket - Pass Details

Date: 02 February 2023
Orbit: 831 x 852 km, 71.0° (Epoch: 01 April)

Event Time Altitude Azimuth Distance (km) Brightness Sun altitude
Rises 18:28:59 0° 221° (SW) 3,362 6.0 -20.0°
Reaches altitude 10° 18:31:32 10° 228° (SW) 2,432 5.3 -20.5°
Maximum altitude 18:36:48 43° 299° (WNW) 1,155 3.3 -21.5°
Drops below altitude 10° 18:42:08 10° 10° (N) 2,448 4.5 -22.6°
Enters shadow 18:43:17 - 14° (NNE) 2,864 4.8 -22.8°
